WZZ30DF EYVI-EPGD

Flight info

Callsign WZZ30DF
Flight time 0h 49m
Altitude 28000
Route UPASI DCT BOKSU DCT BARGU DCT NIKMI
Aircraft A21N/M-SDE1E2E3FGIJ1J4RWXY/LB1

Departure

Time 2026-05-04 15:25
Airport Vilnius International Airport (EYVI)

Arrival

Time 2026-05-04 16:14
Airport Gdańsk Lech Wałęsa Airport (EPGD)
Time Latitude Longitude Altitude Speed Heading
2026-05-04 14:54 54.64491 25.28175 626 ft 0 kts 269°
2026-05-04 15:16 54.64491 25.28223 627 ft 1 kts 269°
2026-05-04 15:16 54.64491 25.28240 627 ft 2 kts 256°
2026-05-04 15:16 54.64511 25.28275 628 ft 2 kts 191°
2026-05-04 15:17 54.64518 25.28276 628 ft 1 kts 176°
2026-05-04 15:17 54.64522 25.28276 628 ft 0 kts 180°
2026-05-04 15:20 54.64521 25.28276 628 ft 0 kts 180°
2026-05-04 15:20 54.64516 25.28276 628 ft 1 kts 180°
2026-05-04 15:20 54.64507 25.28275 628 ft 1 kts 180°
2026-05-04 15:21 54.64492 25.28275 628 ft 3 kts 180°
2026-05-04 15:21 54.64476 25.28312 628 ft 5 kts 94°
2026-05-04 15:21 54.64495 25.28484 632 ft 8 kts 77°
2026-05-04 15:22 54.64514 25.28595 634 ft 10 kts 63°
2026-05-04 15:22 54.64539 25.28695 636 ft 7 kts 75°
2026-05-04 15:22 54.64555 25.28843 638 ft 5 kts 79°
2026-05-04 15:23 54.64556 25.28916 639 ft 7 kts 110°
2026-05-04 15:23 54.64531 25.29008 639 ft 8 kts 116°
2026-05-04 15:23 54.64504 25.29105 639 ft 9 kts 117°
2026-05-04 15:23 54.64473 25.29204 639 ft 9 kts 118°
2026-05-04 15:24 54.64171 25.29098 636 ft 81 kts 202°
2026-05-04 15:24 54.62277 25.27801 1179 ft 174 kts 205°
2026-05-04 15:25 54.61177 25.27056 2142 ft 170 kts 204°
2026-05-04 15:25 54.60109 25.26317 2718 ft 172 kts 212°
2026-05-04 15:25 54.59296 25.24779 3043 ft 184 kts 246°
2026-05-04 15:26 54.58414 25.20162 3764 ft 224 kts 252°
2026-05-04 15:26 54.57913 25.17520 4204 ft 241 kts 251°
2026-05-04 15:26 54.56779 25.11887 5652 ft 252 kts 250°
2026-05-04 15:27 54.56190 25.09042 6444 ft 254 kts 250°
2026-05-04 15:27 54.54988 25.03301 7945 ft 259 kts 250°
2026-05-04 15:28 54.53753 24.97466 9389 ft 264 kts 250°
2026-05-04 15:28 54.53125 24.94512 10090 ft 267 kts 250°
2026-05-04 15:28 54.51778 24.88200 10842 ft 295 kts 250°
2026-05-04 15:29 54.51055 24.84821 11313 ft 305 kts 250°
2026-05-04 15:30 54.48083 24.71002 13955 ft 314 kts 250°
2026-05-04 15:30 54.45776 24.60338 15755 ft 322 kts 250°
2026-05-04 15:31 54.44207 24.53108 16879 ft 327 kts 250°
2026-05-04 15:31 54.43412 24.49453 17402 ft 330 kts 250°
2026-05-04 15:32 54.40965 24.38260 18926 ft 337 kts 251°
2026-05-04 15:32 54.39320 24.30618 19877 ft 343 kts 252°
2026-05-04 15:33 54.38069 24.22696 20788 ft 348 kts 258°
2026-05-04 15:34 54.36632 24.10447 22080 ft 355 kts 259°
2026-05-04 15:34 54.36141 24.06259 22495 ft 357 kts 259°
2026-05-04 15:34 54.35152 23.97848 23292 ft 362 kts 259°
2026-05-04 15:35 54.34148 23.89355 24049 ft 367 kts 259°
2026-05-04 15:35 54.33637 23.85054 24421 ft 369 kts 259°
2026-05-04 15:35 54.33128 23.80775 24799 ft 370 kts 259°
2026-05-04 15:36 54.32089 23.72083 25505 ft 374 kts 258°
2026-05-04 15:36 54.31567 23.67736 25873 ft 375 kts 258°
2026-05-04 15:36 54.31038 23.63355 26277 ft 375 kts 258°
2026-05-04 15:37 54.30509 23.58985 26680 ft 375 kts 258°
2026-05-04 15:37 54.29975 23.54593 27084 ft 374 kts 258°
2026-05-04 15:37 54.29445 23.50244 27486 ft 374 kts 258°
2026-05-04 15:37 54.28918 23.45931 27805 ft 376 kts 258°
2026-05-04 15:38 54.28371 23.41481 27846 ft 383 kts 258°
2026-05-04 15:38 54.27820 23.37009 27849 ft 386 kts 258°
2026-05-04 15:38 54.27256 23.32448 27851 ft 386 kts 257°
2026-05-04 15:38 54.26702 23.27988 27851 ft 386 kts 257°
2026-05-04 15:39 54.26140 23.23465 27850 ft 385 kts 257°
2026-05-04 15:39 54.25580 23.18975 27850 ft 384 kts 257°
2026-05-04 15:39 54.24466 23.10087 27850 ft 384 kts 257°
2026-05-04 15:40 54.23906 23.05631 27851 ft 383 kts 257°
2026-05-04 15:40 54.23341 23.01168 27850 ft 383 kts 257°
2026-05-04 15:40 54.22780 22.96740 27850 ft 383 kts 257°
2026-05-04 15:40 54.22219 22.92328 27850 ft 383 kts 257°
2026-05-04 15:41 54.21654 22.87894 27850 ft 383 kts 257°
2026-05-04 15:41 54.21084 22.83443 27850 ft 382 kts 257°
2026-05-04 15:41 54.20520 22.79043 27850 ft 382 kts 257°
2026-05-04 15:41 54.19944 22.74565 27850 ft 382 kts 257°
2026-05-04 15:42 54.19375 22.70165 27851 ft 382 kts 257°
2026-05-04 15:42 54.18806 22.65767 27852 ft 383 kts 257°
2026-05-04 15:42 54.18224 22.61286 27855 ft 383 kts 257°
2026-05-04 15:42 54.17650 22.56887 27858 ft 383 kts 257°
2026-05-04 15:43 54.17072 22.52458 27862 ft 383 kts 257°
2026-05-04 15:43 54.16495 22.48062 27866 ft 383 kts 257°
2026-05-04 15:43 54.15911 22.43623 27872 ft 383 kts 257°
2026-05-04 15:43 54.15326 22.39183 27878 ft 384 kts 257°
2026-05-04 15:44 54.14733 22.34704 27884 ft 384 kts 257°
2026-05-04 15:44 54.14142 22.30251 27890 ft 384 kts 257°
2026-05-04 15:44 54.13551 22.25817 27894 ft 384 kts 257°
2026-05-04 15:44 54.12955 22.21353 27897 ft 384 kts 257°
2026-05-04 15:45 54.12362 22.16921 27899 ft 385 kts 257°
2026-05-04 15:45 54.11766 22.12483 27901 ft 385 kts 257°
2026-05-04 15:45 54.11169 22.08052 27902 ft 385 kts 257°
2026-05-04 15:45 54.10569 22.03611 27903 ft 385 kts 257°
2026-05-04 15:46 54.09969 21.99186 27903 ft 385 kts 257°
2026-05-04 15:46 54.09360 21.94705 27903 ft 385 kts 257°
2026-05-04 15:46 54.08762 21.90318 27903 ft 385 kts 257°
2026-05-04 15:46 54.08149 21.85836 27903 ft 385 kts 257°
2026-05-04 15:47 54.07544 21.81428 27903 ft 385 kts 257°
2026-05-04 15:47 54.06937 21.77018 27904 ft 385 kts 257°
2026-05-04 15:47 54.06324 21.72571 27904 ft 384 kts 257°
2026-05-04 15:47 54.05715 21.68164 27904 ft 384 kts 257°
2026-05-04 15:48 54.05101 21.63741 27904 ft 384 kts 257°
2026-05-04 15:48 54.04487 21.59330 27904 ft 384 kts 257°
2026-05-04 15:48 54.03250 21.50479 27904 ft 383 kts 257°
2026-05-04 15:49 54.02636 21.46099 27758 ft 381 kts 257°
2026-05-04 15:49 54.02017 21.41705 27008 ft 386 kts 257°
2026-05-04 15:49 54.01393 21.37307 26215 ft 389 kts 257°
2026-05-04 15:49 54.00760 21.32842 25688 ft 385 kts 256°
2026-05-04 15:50 54.00248 21.28394 25180 ft 381 kts 262°
2026-05-04 15:50 54.00105 21.23942 24714 ft 377 kts 270°
2026-05-04 15:50 54.00325 21.19597 24678 ft 366 kts 276°
2026-05-04 15:50 54.00742 21.15319 24704 ft 365 kts 278°
2026-05-04 15:51 54.01180 21.11106 24727 ft 365 kts 278°
2026-05-04 15:51 54.01623 21.06874 24750 ft 365 kts 278°
2026-05-04 15:51 54.02065 21.02636 24596 ft 366 kts 278°
2026-05-04 15:51 54.02510 20.98357 24214 ft 363 kts 278°
2026-05-04 15:52 54.02943 20.94166 23840 ft 360 kts 278°
2026-05-04 15:52 54.03378 20.89962 23462 ft 358 kts 278°
2026-05-04 15:52 54.03803 20.85832 23088 ft 356 kts 278°
2026-05-04 15:52 54.04229 20.81680 22711 ft 354 kts 278°
2026-05-04 15:53 54.04645 20.77603 22339 ft 352 kts 278°
2026-05-04 15:53 54.05064 20.73489 21961 ft 350 kts 278°
2026-05-04 15:53 54.05473 20.69450 21589 ft 349 kts 278°
2026-05-04 15:53 54.05883 20.65399 21214 ft 347 kts 278°
2026-05-04 15:54 54.06290 20.61357 20837 ft 345 kts 278°
2026-05-04 15:54 54.06694 20.57328 20460 ft 344 kts 278°
2026-05-04 15:54 54.07090 20.53373 20092 ft 342 kts 278°
2026-05-04 15:54 54.07487 20.49387 19715 ft 338 kts 278°
2026-05-04 15:55 54.07877 20.45456 19339 ft 335 kts 278°
2026-05-04 15:55 54.08260 20.41588 18958 ft 334 kts 277°
2026-05-04 15:55 54.08644 20.37699 18583 ft 332 kts 277°
2026-05-04 15:55 54.09027 20.33792 18203 ft 331 kts 277°
2026-05-04 15:56 54.09402 20.29962 17831 ft 330 kts 277°
2026-05-04 15:56 54.09781 20.26084 17451 ft 328 kts 277°
2026-05-04 15:56 54.10153 20.22253 17075 ft 326 kts 277°
2026-05-04 15:56 54.10519 20.18483 16702 ft 324 kts 277°
2026-05-04 15:57 54.10885 20.14699 16325 ft 321 kts 276°
2026-05-04 15:57 54.11249 20.10920 15946 ft 319 kts 276°
2026-05-04 15:57 54.11605 20.07218 15575 ft 316 kts 276°
2026-05-04 15:57 54.11952 20.03581 15204 ft 314 kts 276°
2026-05-04 15:58 54.12298 19.99929 14826 ft 312 kts 276°
2026-05-04 15:58 54.12643 19.96293 14454 ft 306 kts 276°
2026-05-04 15:58 54.12973 19.92810 14111 ft 294 kts 276°
2026-05-04 15:58 54.13294 19.89428 13834 ft 281 kts 276°
2026-05-04 15:59 54.13598 19.86213 13574 ft 270 kts 275°
2026-05-04 15:59 54.13892 19.83085 13320 ft 264 kts 275°
2026-05-04 15:59 54.14175 19.80061 13042 ft 258 kts 275°
2026-05-04 15:59 54.14453 19.77075 12785 ft 253 kts 275°
2026-05-04 16:00 54.14726 19.74147 12506 ft 248 kts 275°
2026-05-04 16:00 54.14991 19.71292 12248 ft 242 kts 275°
2026-05-04 16:00 54.15250 19.68496 12016 ft 239 kts 275°
2026-05-04 16:00 54.15506 19.65704 11753 ft 238 kts 275°
2026-05-04 16:01 54.15762 19.62902 11605 ft 239 kts 275°
2026-05-04 16:01 54.16018 19.60099 11471 ft 241 kts 275°
2026-05-04 16:01 54.16273 19.57306 11279 ft 238 kts 275°
2026-05-04 16:01 54.16528 19.54509 11223 ft 238 kts 275°
2026-05-04 16:02 54.16781 19.51733 11111 ft 235 kts 275°
2026-05-04 16:02 54.17030 19.48995 10810 ft 232 kts 275°
2026-05-04 16:02 54.17513 19.43675 10274 ft 223 kts 275°
2026-05-04 16:03 54.17749 19.41050 10078 ft 223 kts 275°
2026-05-04 16:03 54.17983 19.38430 9882 ft 225 kts 275°
2026-05-04 16:03 54.18218 19.35816 9571 ft 223 kts 275°
2026-05-04 16:03 54.18450 19.33222 9250 ft 222 kts 275°
2026-05-04 16:04 54.18684 19.30600 8920 ft 221 kts 275°
2026-05-04 16:04 54.19143 19.25437 8302 ft 219 kts 275°
2026-05-04 16:04 54.19367 19.22907 8065 ft 215 kts 275°
2026-05-04 16:05 54.19587 19.20422 7799 ft 212 kts 275°
2026-05-04 16:05 54.19807 19.17933 7537 ft 209 kts 275°
2026-05-04 16:05 54.20542 19.13168 6997 ft 210 kts 288°
2026-05-04 16:06 54.21151 19.10884 6776 ft 211 kts 290°
2026-05-04 16:06 54.22798 19.04815 6080 ft 212 kts 290°
2026-05-04 16:07 54.23638 19.01702 5617 ft 223 kts 292°
2026-05-04 16:07 54.25829 18.94697 4765 ft 222 kts 294°
2026-05-04 16:08 54.26510 18.92304 4478 ft 222 kts 293°
2026-05-04 16:08 54.28340 18.85141 3992 ft 219 kts 291°
2026-05-04 16:09 54.29465 18.80516 3985 ft 204 kts 291°
2026-05-04 16:09 54.30544 18.76055 3787 ft 204 kts 291°
2026-05-04 16:10 54.31628 18.71589 3259 ft 200 kts 292°
2026-05-04 16:11 54.33109 18.65534 2530 ft 165 kts 292°
2026-05-04 16:11 54.33533 18.63803 2314 ft 151 kts 292°
2026-05-04 16:12 54.34674 18.59150 1734 ft 138 kts 292°
2026-05-04 16:12 54.35790 18.54614 1204 ft 137 kts 292°
2026-05-04 16:13 54.36528 18.51623 851 ft 136 kts 292°
2026-05-04 16:13 54.37263 18.48633 504 ft 135 kts 292°
2026-05-04 16:14 54.37768 18.46806 463 ft 27 kts 320°
2026-05-04 16:14 54.37904 18.46742 464 ft 8 kts 104°
2026-05-04 16:15 54.37948 18.46988 465 ft 8 kts 24°
2026-05-04 16:16 54.38014 18.46996 465 ft 0 kts 354°